#timestamp,LO_Frequency,Hit 
1504720815.9,286047002.6,N
1504720835.7,286047001.1,N
1504720855.6,286046996.7,N
1504720875.4,286046995.9,N
1504720895.2,286046993.4,N
1504720915.0,286046992.2,N
1504720915.9,286046992.2,N
1504720935.8,286046994.7,N
1504720955.6,286046991.0,N
1504720975.5,286046983.3,P
1504720995.3,286046982.5,N
1504721015.1,286046984.7,N
1504721035.8,286046983.4,N
1504721055.7,286046981.2,N
1504721075.5,286046981.8,N
1504721095.4,286046982.1,P
1504721115.2,286046998.2,N
1504721135.0,286046998.5,N
1504721135.9,286046998.5,N
1504721155.8,286046996.5,N
1504721175.6,286046997.7,N
1504721195.4,286046995.4,N
1504721215.2,286046999.4,N
1504721235.1,286046996.8,N
1504721236.0,286046996.8,N
1504721255.8,286046995.3,N
1504721275.6,286046992.0,N
1504721295.5,286046992.9,N
1504721315.3,286046993.2,N
1504721335.1,286046996.4,N
1504721355.9,286046995.9,N
1504721375.7,286046996.4,N
1504721395.5,286046996.2,N
1504721415.4,286046995.7,N
1504721435.2,286046993.6,N
1504721455.0,286046991.3,N
1504721455.9,286046991.3,N
1504721475.8,286046986.2,P
1504721495.6,286046993.1,N
1504721515.4,286046993.3,N
1504721535.3,286046996.3,N
1504721555.1,286046993.4,N
1504721556.0,286046993.4,N
1504721575.8,286046994.6,N
1504721595.7,286046990.3,P
1504721615.5,286046996.1,N
1504721635.3,286046998.1,N
1504721655.2,286047004.0,N
1504721675.9,286047006.6,N
1504721695.7,286047011.7,N
1504721715.6,286047007.8,N
1504721735.4,286047009.7,N
1504721755.2,286047015.6,N
1504721775.0,286047016.5,N
1504721775.9,286047016.5,N
1504721795.8,286047016.2,N
1504721815.6,286047017.4,N
1504721835.4,286047025.1,N
1504721855.3,286047025.2,N
1504721875.1,286047025.8,N
1504721895.8,286047025.6,N
1504721915.7,286047024.1,N
1504721935.5,286047022.6,N
1504721955.3,286047025.7,N
1504721975.2,286047025.6,N
1504721995.9,286047022.6,N
1504722015.7,286047025.3,N
1504722035.6,286047029.3,N
1504722055.4,286047030.2,N
1504722075.2,286047032.0,N
1504722095.0,286047033.9,N
1504722095.9,286047033.9,N
1504722115.8,286047034.8,N
1504722135.6,286047030.1,N
1504722155.4,286047028.7,N
1504722175.3,286047031.4,P
1504722195.1,286047008.9,N
1504722215.8,286047007.5,N
1504722235.7,286047004.8,N
1504722255.5,286047004.6,N
1504722275.3,286047005.0,N
1504722295.2,286047010.6,N
1504722315.9,286047013.7,N
1504722335.7,286047007.9,N
1504722355.6,286047007.7,N
1504722375.4,286047007.5,N
1504722395.2,286047004.8,N
1504722415.1,286047005.7,N
1504722416.0,286047005.7,N
1504722435.8,286047003.0,N
1504722455.6,286047003.1,N
1504722475.5,286047004.4,N
1504722495.3,286047004.5,N
1504722515.1,286047006.1,N
1504722535.8,286047009.9,N
1504722555.7,286047010.1,N
1504722575.5,286047006.6,N
1504722595.3,286047012.7,N
1504722615.2,286047015.4,N
1504722635.9,286047012.6,N
1504722655.7,286047013.1,N
1504722675.6,286047012.7,N
1504722695.4,286047017.2,N
1504722715.2,286047014.5,N
1504722735.1,286047016.4,N
1504722736.0,286047016.4,N
1504722755.8,286047011.3,N
1504722775.6,286047008.1,N
1504722795.5,286047006.8,N
1504722815.3,286047003.7,N
1504722835.1,286047000.9,N
1504722855.8,286047000.3,N
1504722875.7,286047000.6,N
1504722895.5,286046999.9,N
1504722915.3,286046998.8,N
1504722935.2,286046996.5,N
1504722955.9,286046997.3,N
1504722975.7,286046994.0,N
1504722995.6,286046993.8,N
1504723015.4,286046992.5,N
1504723035.2,286046991.1,N
1504723055.1,286046988.8,N
1504723056.0,286046988.8,N
1504723075.8,286046989.6,N
1504723095.6,286046985.9,N
1504723115.5,286046984.3,N
1504723135.3,286046982.1,N
1504723155.1,286046983.7,N
1504723175.9,286046982.4,N
1504723195.7,286046985.2,N
1504723215.5,286046984.3,N
1504723235.3,286046980.6,N
1504723255.2,286046979.3,N
1504723275.0,286046975.7,N
1504723275.9,286046975.7,N
1504723295.7,286046976.9,N
1504723315.6,286046976.6,N
1504723335.4,286046978.5,N
1504723355.2,286046978.2,N
1504723375.1,286046976.2,N
1504723376.0,286046976.2,N
1504723395.8,286046976.1,N
1504723415.6,286046977.0,N
1504723435.5,286046983.4,N
1504723455.3,286046982.8,N
1504723475.1,286046984.7,N
1504723495.9,286046982.4,N
1504723515.7,286046981.8,P
1504723535.5,286046998.5,N
1504723555.4,286047000.6,N
1504723575.2,286046998.3,N
1504723595.0,286046997.7,N
1504723595.9,286046997.7,N
1504723615.8,286046998.9,N
1504723635.6,286047000.2,N
1504723655.4,286047007.5,N
1504723675.2,286047014.0,N
1504723695.1,286047018.3,N
1504723696.0,286047018.3,N
1504723715.8,286047017.5,N
1504723735.6,286047017.7,N
1504723755.5,286047017.7,N
1504723775.3,286047018.2,N
1504723795.1,286047015.0,N
1504723815.9,286047018.6,N
1504723835.7,286047019.2,N
1504723855.5,286047023.4,N
1504723875.4,286047022.5,N
1504723895.2,286047024.4,N
1504723915.0,286047022.4,N
1504723915.9,286047022.4,N
1504723935.8,286047024.2,N
1504723955.6,286047022.3,N
1504723975.4,286047019.1,N
1504723995.2,286047017.7,N
1504724015.1,286047020.1,N
1504724016.0,286047020.1,N
1504724035.8,286047021.5,N
1504724055.6,286047021.3,N
1504724075.5,286047021.8,N
1504724095.3,286047019.4,N
1504724115.1,286047021.1,N
1504724135.9,286047023.0,P
1504724155.7,286047005.6,N
1504724175.5,286047006.3,N
1504724195.4,286047007.9,N
1504724215.2,286047008.8,N
1504724235.0,286047010.8,N
1504724235.9,286047010.8,N
1504724255.8,286047007.3,N
1504724275.6,286047008.7,N
1504724295.4,286047008.3,N
1504724315.3,286047008.6,N
1504724335.1,286047005.7,N
1504724336.0,286047005.7,N
1504724355.8,286047004.3,N
1504724375.7,286047004.3,N
1504724395.5,286047003.5,N
